Location: Peterborough
(44.3091°N, 78.3197°W)
Time: 01:40:24
(UTC-04:00)

Vanguard 1 Rocket - Pass Details

Date: 26 March 2023
Orbit: 655 x 4220 km, 34.3° (Epoch: 02 June)

Event Time Altitude Azimuth Distance (km) Brightness Sun altitude
Exits shadow 06:14:05 12° 252° (WSW) 3,691 9.8 -10.0°
Maximum altitude 06:17:55 15° 226° (SW) 2,949 9.5 -9.3°
Drops below altitude 10° 06:21:39 10° 193° (SSW) 2,864 9.7 -8.7°
Sets 06:25:04 0° 169° (S) 3,437 10.4 -8.1°
